This is the latest recevied weather packets stored in our database for station/object HF3P-11. If no packets are shown the sender has not sent any weather packets the latest 10 day(s).
| Time | Temp. | Humidity | Pressure | Rain* | Wind** | Luminosity | Snow |
|---|---|---|---|---|---|---|---|
| 1777968302 | 17.22° C | 79% | 1002.1 hPa | 0 mm | - | - | - |
| 1777968009 | 17.22° C | 79% | 1002.2 hPa | 0 mm | - | - | - |
| 1777967701 | 17.22° C | 80% | 1002.3 hPa | 0 mm | - | - | - |
| 1777967411 | 16.67° C | 80% | 1002 hPa | 0 mm | - | - | - |
| 1777967101 | 17.22° C | 80% | 1002.1 hPa | 0 mm | - | - | - |
| 1777966809 | 17.22° C | 80% | 1002.1 hPa | 0 mm | - | - | - |
| 1777966501 | 17.22° C | 76% | 1002.1 hPa | 0 mm | - | - | - |
| 1777966208 | 17.22° C | 77% | 1002.4 hPa | 0 mm | - | - | - |
| 1777965902 | 17.22° C | 77% | 1002.4 hPa | 0 mm | - | - | - |
| 1777965609 | 17.22° C | 78% | 1002.4 hPa | 0 mm | - | - | - |
| 1777965301 | 17.22° C | 77% | 1002.6 hPa | 0 mm | - | - | - |
| 1777965009 | 17.22° C | 78% | 1002.5 hPa | 0 mm | - | - | - |
| 1777964702 | 17.22° C | 82% | 1002.6 hPa | 0 mm | - | - | - |
| 1777964408 | 17.22° C | 82% | 1002.7 hPa | 0 mm | - | - | - |
| 1777964102 | 16.11° C | 83% | 1002.8 hPa | 0 mm | - | - | - |
| 1777963810 | 16.11° C | 84% | 1002.7 hPa | 0 mm | - | - | - |
| 1777963502 | 15.56° C | 86% | 1002.9 hPa | 0 mm | - | - | - |
| 1777963209 | 15.56° C | 86% | 1002.8 hPa | 0 mm | - | - | - |
| 1777962901 | 15.56° C | 87% | 1002.8 hPa | 0 mm | - | - | - |
| 1777962609 | 15.56° C | 87% | 1002.9 hPa | 0 mm | - | - | - |
| 1777962301 | 15.56° C | 88% | 1003 hPa | 0 mm | - | - | - |
| 1777962009 | 15° C | 88% | 1002.7 hPa | 0 mm | - | - | - |
| 1777961701 | 15° C | 88% | 1002.8 hPa | 0 mm | - | - | - |
| 1777961411 | 15° C | 88% | 1002.8 hPa | 0 mm | - | - | - |
| 1777961102 | 15° C | 88% | 1002.8 hPa | 0 mm | - | - | - |
* Rain latest hour (hover to see other rain measurements)
** Current wind speed in m/s (hover to see current wind gust speed)